Starlink 6379

operational
NORAD ID: 57343 Int'l Des: 2023-099 Owner: SPXS Country: US Constellation: starlink
LEOCIRCULAR

About Starlink 6379

Description loading...

Live Position

Loading 3D Globe...

Upcoming Passes

Altitude History

Altitude vs Time

uPlot chart will show altitude changes over time

Two-Line Element Set

1 57343U 23099R 25351.03297277 .00001395 00000-0 11831-3 0 9993
2 57343 43.0045 338.0390 0001073 255.2862 104.7862 15.02531500133688
Epoch: Dec 17, 2025 • Age: 17 hours

Current Status

Altitude 563.7 km
Velocity 7.58 km/s
Sub-Earth Point -22.01°S, 172.21°W
Launch Date Jul 16, 2023
Age 2.4 years
Type internet

Technical Details

Classification Payload
Mass 305.00 kg
Dry Mass 290.00 kg
Total Mass 305.00 kg
Length 0.20 m
Diameter 2.80 m
Span 9.00 m
Shape Box + pan
Manufacturer SPXS
Bus Type Starlink
Phase Status In Orbit
Owner/State SPXS/US

Large Constellations

Loading constellations...